Simultaneous Nadir Overpasses (SNOs) Predictions

Prediction of SNOs between METOP-C and LANDSAT-8 Satellite Orbit:

Table of predicted SNOs for the next 14.0 days since TLE Epoch: 1/23/2022
Index Date (METOP-C) Time (METOP-C) Lat,Lon (METOP-C) SZA (METOP-C ) Date (LANDSAT-8) Time (LANDSAT-8) Lat,Lon (LANDSAT-8) SZA (LANDSAT-8 ) Distance(km) Time Diff (sec)
1 01/24/2022 08:07:35 -81.07, -83.37 78.21 01/24/2022 08:08:42 -81.07, -83.25 78.17 2.13 67
2 01/24/2022 08:58:13 81.10, 85.00 101.91 01/24/2022 08:58:07 81.10, 84.86 101.89 2.34 6
3 01/27/2022 03:41:58 -81.06, -17.05 78.93 01/27/2022 03:42:56 -81.06, -16.86 78.89 3.27 58
4 01/27/2022 04:32:36 81.10, 151.23 101.18 01/27/2022 04:32:21 81.09, 151.22 101.17 0.43 15
5 01/29/2022 23:16:19 -81.09, 49.98 79.61 01/29/2022 23:17:09 -81.08, 49.81 79.62 3.03 50
6 01/30/2022 00:06:58 81.10,-142.18 100.44 01/30/2022 00:06:34 81.11,-142.13 100.44 1.08 24
7 02/01/2022 18:50:43 -81.07, 115.87 80.47 02/01/2022 18:51:23 -81.07, 116.05 80.44 3.11 40
8 02/01/2022 19:41:21 81.10, -76.00 99.62 02/01/2022 19:40:48 81.09, -75.91 99.61 1.62 33
9 02/04/2022 14:25:04 -81.07,-177.52 81.28 02/04/2022 14:25:35 -81.07,-177.41 81.26 1.83 31



Historial Predications of SNOs between METOP-C and LANDSAT-8
